MOLNIYA 2-14

Last updated on Aug. 6, 2020, 5:30 a.m. UTC

1 08195U 75081A   20218.26268323  .00000788  00000-0  44446-2 0  9996
2 08195  63.1484 271.6722 7252693 293.3168   9.1753  2.02101728329141
UTC
Height (km)
Latitude
Longitude
Inclination
Orbital Period
UTC large
Height (km)
Speed (km/s)
/
Latitude / Longitude
Inclination (degrees)
Orbital Period (minutes)
Azimuth
Elevation
Range (km)
Doppler Factor
iOS Compass Heading
iOS Angle

Next 30 passes for location: Hong Kong

Rise time Rise Azimuth (degrees) Set time Set Azimuth (degrees) Duration Max altitude (degrees)

No matching passes for this satellites